User: anonymous   Login
Location: Chakepay
(13.3931°S, 72.1925°W)
Time: 15:44:50
(UTC+00:00)
Language:

SJ 16-02 - Orbit

View from above orbital plane
View from above orbital plane
View from above satellite
View from above satellite

Ground track
Ground track

The orbit data is extracted from the following two-line orbital elements,

1 41634U 16043A   20021.19491919  .00000039  00000-0  76824-5 0  9994
2 41634  75.0036 349.8664 0008651 286.4635  73.5608 14.85633616193224
Epoch (UTC): 21 January 2020 04:40:41
Eccentricity: 0.0008651
inclination: 75.0036°
perigee height: 605 km
apogee height: 617 km
right ascension of ascending node: 349.8664°
argument of perigee: 286.4635°
revolutions per day: 14.85633616
mean anomaly at epoch: 73.5608°
orbit number at epoch: 19322

The dashed part of the orbit path shows where the satellite is in the earth's shadow,  

DLR